When you browse on this site, cookies collect data to enhance your experience and personalize the content and advertising you see.
Visit our Privacy Policy to learn more. By continuing to use the site, you agree to this use of cookies and data.

Stündliche Wetter Hrasdan

Heute, 7 August, Freitag

Zeit Temperatur Niederschläge Wind Luftdruck Luftfeuchtigkeit
00:00 +12°C° 0 mm 2 m/S 613 mmHg 83%
01:00 +12°C° 0 mm 2 m/S 613 mmHg 83%
02:00 +12°C° 0 mm 2 m/S 613 mmHg 82%
03:00 +12°C° 0 mm 2 m/S 613 mmHg 80%
04:00 +12°C° 0 mm 2 m/S 614 mmHg 81%
05:00 +12°C° 0 mm 2 m/S 614 mmHg 81%
06:00 +12°C° 0 mm 2 m/S 614 mmHg 82%
07:00 +14°C° 0 mm 2 m/S 615 mmHg 77%
08:00 +16°C° 0 mm 2 m/S 615 mmHg 71%
09:00 +17°C° 0 mm 2 m/S 616 mmHg 66%
10:00 +18°C° 0 mm 2 m/S 616 mmHg 63%
11:00 +19°C° 0 mm 2 m/S 616 mmHg 61%
12:00 +20°C° 0 mm 2 m/S 616 mmHg 59%
13:00 +20°C° 0 mm 2 m/S 616 mmHg 58%
14:00 +21°C° 0 mm 3 m/S 616 mmHg 57%
15:00 +21°C° 0 mm 3 m/S 615 mmHg 56%
16:00 +20°C° 0 mm 3 m/S 615 mmHg 61%
17:00 +20°C° 0 mm 3 m/S 615 mmHg 65%
18:00 +19°C° 0 mm 3 m/S 615 mmHg 69%
19:00 +17°C° 0 mm 3 m/S 614 mmHg 74%
20:00 +16°C° 0 mm 2 m/S 614 mmHg 78%
21:00 +14°C° 0 mm 2 m/S 614 mmHg 83%
22:00 +14°C° 0 mm 2 m/S 614 mmHg 83%
23:00 +13°C° 0 mm 2 m/S 614 mmHg 83%

Morgen, 8 August, Samstag

Zeit Temperatur Niederschläge Wind Luftdruck Luftfeuchtigkeit
00:00 +13°C° 0 mm 2 m/S 613 mmHg 82%
01:00 +13°C° 0 mm 2 m/S 613 mmHg 81%
02:00 +13°C° 0 mm 2 m/S 613 mmHg 80%
03:00 +12°C° 0 mm 2 m/S 613 mmHg 79%
04:00 +13°C° 0 mm 2 m/S 613 mmHg 78%
05:00 +13°C° 0 mm 1 m/S 613 mmHg 78%
06:00 +13°C° 0 mm 1 m/S 613 mmHg 78%
07:00 +15°C° 0 mm 1 m/S 614 mmHg 72%
08:00 +17°C° 0 mm 2 m/S 614 mmHg 65%
09:00 +19°C° 0 mm 2 m/S 615 mmHg 59%
10:00 +20°C° 0 mm 2 m/S 615 mmHg 55%
11:00 +21°C° 0 mm 2 m/S 615 mmHg 52%
12:00 +23°C° 0 mm 2 m/S 615 mmHg 48%
13:00 +24°C° 0 mm 2 m/S 615 mmHg 47%
14:00 +24°C° 0 mm 2 m/S 614 mmHg 47%
15:00 +24°C° 0 mm 2 m/S 614 mmHg 46%
16:00 +23°C° 0 mm 2 m/S 613 mmHg 52%
17:00 +21°C° 0 mm 2 m/S 613 mmHg 58%
18:00 +21°C° 0 mm 2 m/S 612 mmHg 63%
19:00 +19°C° 0 mm 2 m/S 612 mmHg 69%
20:00 +17°C° 0 mm 2 m/S 611 mmHg 74%
21:00 +15°C° 0 mm 2 m/S 611 mmHg 80%
22:00 +15°C° 0 mm 2 m/S 611 mmHg 80%
23:00 +15°C° 0 mm 2 m/S 611 mmHg 80%

übermorgen, 9 August, Sonntag

Zeit Temperatur Niederschläge Wind Luftdruck Luftfeuchtigkeit
00:00 +14°C° 0 mm 2 m/S 611 mmHg 80%
01:00 +14°C° 0 mm 2 m/S 611 mmHg 79%
02:00 +14°C° 0 mm 2 m/S 610 mmHg 79%
03:00 +14°C° 0 mm 1 m/S 610 mmHg 78%
04:00 +14°C° 0 mm 1 m/S 610 mmHg 78%
05:00 +14°C° 0 mm 1 m/S 610 mmHg 78%
06:00 +14°C° 0 mm 1 m/S 611 mmHg 77%
07:00 +18°C° 0 mm 1 m/S 611 mmHg 71%
08:00 +20°C° 0 mm 1 m/S 612 mmHg 64%
09:00 +21°C° 0 mm 2 m/S 612 mmHg 57%
10:00 +23°C° 0 mm 2 m/S 613 mmHg 53%
11:00 +24°C° 0 mm 1 m/S 613 mmHg 49%
12:00 +25°C° 0 mm 1 m/S 613 mmHg 45%
13:00 +26°C° 0.1 mm 2 m/S 613 mmHg 45%
14:00 +26°C° 0.1 mm 2 m/S 612 mmHg 44%
15:00 +26°C° 0.1 mm 2 m/S 612 mmHg 44%
16:00 +25°C° 0.1 mm 2 m/S 612 mmHg 50%
17:00 +24°C° 0.1 mm 2 m/S 611 mmHg 57%
18:00 +23°C° 0.1 mm 2 m/S 611 mmHg 64%
19:00 +20°C° 0 mm 2 m/S 610 mmHg 68%
20:00 +19°C° 0 mm 2 m/S 610 mmHg 72%
21:00 +17°C° 0 mm 2 m/S 610 mmHg 76%
22:00 +17°C° 0 mm 2 m/S 610 mmHg 76%
23:00 +16°C° 0 mm 2 m/S 610 mmHg 75%

10 August, Montag

Zeit Temperatur Niederschläge Wind Luftdruck Luftfeuchtigkeit
00:00 +16°C° 0 mm 2 m/S 610 mmHg 75%
01:00 +16°C° 0 mm 2 m/S 610 mmHg 75%
02:00 +16°C° 0 mm 2 m/S 610 mmHg 75%
03:00 +16°C° 0 mm 2 m/S 610 mmHg 75%
04:00 +16°C° 0 mm 2 m/S 610 mmHg 75%
05:00 +16°C° 0 mm 2 m/S 610 mmHg 75%
06:00 +16°C° 0 mm 2 m/S 610 mmHg 74%
07:00 +18°C° 0 mm 2 m/S 611 mmHg 68%
08:00 +20°C° 0 mm 2 m/S 612 mmHg 61%
09:00 +23°C° 0 mm 2 m/S 612 mmHg 54%
10:00 +24°C° 0 mm 2 m/S 612 mmHg 52%
11:00 +25°C° 0 mm 3 m/S 613 mmHg 49%
12:00 +26°C° 0 mm 3 m/S 613 mmHg 47%
13:00 +26°C° 0.1 mm 3 m/S 612 mmHg 48%
14:00 +26°C° 0.1 mm 3 m/S 612 mmHg 48%
15:00 +27°C° 0.1 mm 3 m/S 611 mmHg 49%
16:00 +25°C° 0.1 mm 3 m/S 611 mmHg 55%
17:00 +24°C° 0.1 mm 3 m/S 611 mmHg 62%
18:00 +22°C° 0.1 mm 3 m/S 610 mmHg 69%
19:00 +20°C° 0 mm 3 m/S 610 mmHg 73%
20:00 +18°C° 0 mm 3 m/S 610 mmHg 78%
21:00 +16°C° 0 mm 3 m/S 610 mmHg 82%
22:00 +16°C° 0 mm 3 m/S 610 mmHg 82%
23:00 +16°C° 0 mm 3 m/S 610 mmHg 82%

11 August, Dienstag

Zeit Temperatur Niederschläge Wind Luftdruck Luftfeuchtigkeit
00:00 +16°C° 0 mm 3 m/S 610 mmHg 82%
01:00 +14°C° 0 mm 3 m/S 610 mmHg 83%
02:00 +15°C° 0 mm 2 m/S 610 mmHg 83%
03:00 +14°C° 0 mm 2 m/S 610 mmHg 84%
04:00 +15°C° 0 mm 2 m/S 610 mmHg 83%
05:00 +15°C° 0 mm 2 m/S 611 mmHg 82%
06:00 +15°C° 0 mm 2 m/S 611 mmHg 81%
07:00 +17°C° 0 mm 2 m/S 611 mmHg 76%
08:00 +18°C° 0 mm 2 m/S 612 mmHg 70%
09:00 +20°C° 0 mm 2 m/S 613 mmHg 65%
10:00 +21°C° 0 mm 3 m/S 613 mmHg 63%
11:00 +22°C° 0 mm 3 m/S 613 mmHg 61%
12:00 +22°C° 0 mm 3 m/S 613 mmHg 59%
13:00 +24°C° 0.1 mm 3 m/S 612 mmHg 58%
14:00 +24°C° 0.1 mm 3 m/S 612 mmHg 57%
15:00 +24°C° 0.1 mm 3 m/S 612 mmHg 57%
16:00 +22°C° 0.1 mm 3 m/S 611 mmHg 61%
17:00 +21°C° 0.1 mm 3 m/S 611 mmHg 66%
18:00 +20°C° 0.1 mm 3 m/S 611 mmHg 70%
19:00 +19°C° 0 mm 3 m/S 611 mmHg 74%
20:00 +17°C° 0 mm 3 m/S 611 mmHg 78%
21:00 +16°C° 0 mm 3 m/S 611 mmHg 81%
22:00 +16°C° 0 mm 3 m/S 611 mmHg 82%
23:00 +14°C° 0 mm 3 m/S 611 mmHg 83%

12 August, Mittwoch

Zeit Temperatur Niederschläge Wind Luftdruck Luftfeuchtigkeit
00:00 +14°C° 0 mm 3 m/S 611 mmHg 85%
01:00 +14°C° 0 mm 3 m/S 611 mmHg 86%
02:00 +13°C° 0 mm 3 m/S 611 mmHg 87%
03:00 +13°C° 0 mm 3 m/S 611 mmHg 88%
04:00 +14°C° 0 mm 2 m/S 611 mmHg 88%
05:00 +14°C° 0 mm 2 m/S 611 mmHg 87%
06:00 +14°C° 0 mm 2 m/S 611 mmHg 87%
07:00 +16°C° 0 mm 2 m/S 612 mmHg 81%
08:00 +17°C° 0 mm 2 m/S 612 mmHg 75%
09:00 +19°C° 0 mm 2 m/S 613 mmHg 70%
10:00 +19°C° 0 mm 2 m/S 613 mmHg 69%
11:00 +20°C° 0 mm 2 m/S 612 mmHg 68%
12:00 +21°C° 0 mm 3 m/S 612 mmHg 67%
13:00 +21°C° 0.1 mm 3 m/S 612 mmHg 65%
14:00 +21°C° 0.1 mm 3 m/S 612 mmHg 64%
15:00 +22°C° 0.1 mm 3 m/S 612 mmHg 63%
16:00 +21°C° 0 mm 3 m/S 612 mmHg 67%
17:00 +20°C° 0 mm 3 m/S 611 mmHg 70%
18:00 +20°C° 0 mm 3 m/S 611 mmHg 73%
19:00 +19°C° 0 mm 3 m/S 611 mmHg 76%
20:00 +17°C° 0 mm 3 m/S 611 mmHg 79%
21:00 +16°C° 0 mm 3 m/S 611 mmHg 82%
22:00 +16°C° 0 mm 3 m/S 611 mmHg 82%
23:00 +16°C° 0 mm 2 m/S 611 mmHg 82%
Mehr zeigen